Location: Unspecified
(0.0000°N, 0.0000°E)
Time: 17:38:05
(UTC+02:00)

Iridium 76 - Visible Passes

Search period start: 03 July 2015 00:00
Search period end: 13 July 2015 00:00
Orbit: 776 x 779 km, 86.4° (Epoch: 02 July)

Date Brightness Start Highest point End Pass type
(mag) Time Alt. Az. Time Alt. Az. Time Alt. Az.
03 Jul 6.9 20:30:46 10° SSW 20:35:43 43° W 20:40:36 10° NNW visible
04 Jul 7.7 07:24:13 10° NNE 07:28:37 29° E 07:33:09 10° SSE visible
05 Jul 8.5 06:52:56 10° ENE 06:55:02 13° E 06:57:32 10° ESE visible
05 Jul 8.7 21:07:23 10° WSW 21:09:25 12° W 21:11:01 10° WNW visible
06 Jul 7.9 20:31:25 10° SSW 20:35:49 27° W 20:40:05 10° NW visible
07 Jul 6.7 07:23:45 10° NNE 07:28:43 47° E 07:33:44 10° SSE visible
08 Jul 8.1 06:51:24 10° NE 06:55:11 21° E 06:59:11 10° SE visible
09 Jul 8.4 20:32:34 10° SW 20:35:57 17° W 20:39:01 10° NW visible
10 Jul 5.7 07:23:36 10° N 07:28:47 78° E 07:34:01 10° S visible
11 Jul 7.2 06:50:39 10° NNE 06:55:17 34° E 07:00:02 10° SSE visible
12 Jul 8.3 06:18:52 10° NE 06:21:43 15° E 06:24:54 10° SE visible
